FW6979 Weather Reports


Display with metric or nautical units.
time (UTC)temp
F
wind
direction
speed
MPH
gust
MPH
rain 1hr
in
rain 24hr
in
rain mn
in
humidity
%
barometer
mb
20260906074539 71 0 0.0 0.0 0.00 0.00 0.00 88 1012.8
20260906073046 71 0 0.0 0.0 0.00 0.00 0.00 88 1012.9
20260906071556 71 0 0.0 0.0 0.00 0.00 0.00 88 1012.8
20260906070044 71 0 0.0 0.0 0.00 0.00 0.00 88 1013.1
20260906064543 71 275 0.0 2.0 0.00 0.00 0.00 88 1013.1
20260906063047 72 0 0.0 0.0 0.00 0.00 0.00 88 1013.1
20260906061546 72 0 0.0 1.0 0.00 0.00 0.00 88 1013.3
20260906060045 72 0 0.0 1.0 0.00 0.00 0.00 88 1013.6
20260906054538 72 0 0.0 1.0 0.00 0.00 0.00 87 1013.8
20260906053039 72 0 0.0 1.0 0.00 0.00 0.00 87 1014.0
20260906051549 72 0 0.0 0.0 0.00 0.00 0.00 87 1014.2
20260906050110 73 0 0.0 1.0 0.00 0.00 0.00 87 1014.3
20260906044539 73 0 0.0 1.0 0.00 0.00 0.00 87 1014.3
20260906043050 73 0 0.0 1.0 0.00 0.00 0.00 87 1014.1
20260906041545 73 0 0.0 1.0 0.00 0.00 0.00 86 1014.2
20260906040046 74 0 0.0 1.0 0.00 0.00 0.00 86 1014.2
20260906034543 74 0 0.0 2.0 0.00 0.00 0.00 85 1014.5
20260906033046 74 0 0.0 0.0 0.00 0.00 0.00 85 1014.3
20260906031545 74 0 0.0 1.0 0.00 0.00 0.00 85 1014.5
20260906030040 74 0 0.0 2.0 0.00 0.00 0.00 85 1014.2
20260906024546 75 0 0.0 0.0 0.00 0.00 0.00 83 1013.7
20260906023044 75 0 0.0 0.0 0.00 0.00 0.00 84 1013.9
20260906021605 75 0 0.0 0.0 0.00 0.00 0.00 83 1014.2
20260906020047 76 0 0.0 0.0 0.00 0.00 0.00 83 1014.5
20260906014543 76 0 0.0 0.0 0.00 0.00 0.00 82 1014.3
20260906013049 76 0 0.0 0.0 0.00 0.00 0.00 82 1014.1
20260906011547 76 0 0.0 0.0 0.00 0.00 0.00 82 1014.0
20260906010047 76 0 0.0 0.0 0.00 0.00 0.00 81 1013.7
20260906004544 77 0 0.0 3.0 0.00 0.00 0.00 80 1013.5
20260906003045 77 0 0.0 1.0 0.00 0.00 0.00 79 1013.1
20260906001547 77 0 0.0 1.0 0.00 0.00 0.00 79 1013.1
20260906000046 78 0 0.0 1.0 0.00 0.00 0.00 77 1013.3
20260905234551 79 0 0.0 2.0 0.00 0.00 0.00 76 1013.3
20260905233043 80 0 0.0 3.0 0.00 0.00 0.00 74 1013.3
20260905231546 80 0 0.0 1.0 0.00 0.00 0.00 74 1013.2
20260905230051 81 277 0.0 3.0 0.00 0.00 0.00 71 1013.2
20260905224542 81 273 0.0 4.0 0.00 0.00 0.00 70 1013.3
20260905223046 81 0 0.0 2.0 0.00 0.00 0.00 71 1013.3
20260905221544 81 0 0.0 2.0 0.00 0.00 0.00 71 1013.2
20260905220044 81 0 0.0 4.0 0.00 0.00 0.00 69 1013.6
20260905214557 82 0 0.0 3.0 0.00 0.00 0.00 70 1013.6
20260905213047 82 0 0.0 2.0 0.00 0.00 0.00 68 1013.6
20260905211544 82 0 0.0 2.0 0.00 0.00 0.00 67 1013.6
20260905210047 83 0 0.0 2.0 0.00 0.00 0.00 67 1013.7
20260905204545 85 260 0.0 3.0 0.00 0.00 0.00 64 1013.7
20260905203045 84 253 0.0 0.0 0.00 0.00 0.00 62 1014.4
20260905201544 86 0 0.0 3.0 0.00 0.00 0.00 60 1014.6
20260905200044 84 0 0.0 4.0 0.00 0.00 0.00 61 1014.0
20260905194546 85 0 0.0 4.0 0.00 0.00 0.00 58 1015.2
20260905193044 87 0 0.0 3.0 0.00 0.00 0.00 60 1014.3
20260905191541 88 0 0.0 5.0 0.00 0.00 0.00 57 1014.2
20260905190041 91 0 0.0 1.0 0.00 0.00 0.00 53 1014.2
20260905184603 93 0 0.0 1.0 0.00 0.00 0.00 48 1013.7
20260905183046 96 289 0.0 4.0 0.00 0.00 0.00 44 1013.8
20260905181540 98 0 1.0 4.0 0.00 0.00 0.00 44 1013.7
20260905180049 97 311 1.0 4.0 0.00 0.00 0.00 43 1014.3
20260905174550 96 225 0.0 3.0 0.00 0.00 0.00 48 1014.5
20260905173045 95 324 0.0 4.0 0.00 0.00 0.00 49 1014.6
20260905171543 96 314 1.0 4.0 0.00 0.00 0.00 46 1014.5
20260905170043 95 0 0.0 6.0 0.00 0.00 0.00 51 1014.8
20260905164540 94 190 0.0 2.0 0.00 0.00 0.00 50 1015.2
20260905163052 94 0 0.0 3.0 0.00 0.00 0.00 53 1015.6
20260905161544 92 35 0.0 3.0 0.00 0.00 0.00 57 1015.6
20260905160050 92 263 0.0 3.0 0.00 0.00 0.00 60 1015.5
20260905154548 90 257 0.0 3.0 0.00 0.00 0.00 64 1015.7
20260905153045 91 259 0.0 2.0 0.00 0.00 0.00 62 1015.9
20260905151544 89 0 0.0 4.0 0.00 0.00 0.00 65 1016.0
20260905150042 88 267 2.0 6.0 0.00 0.00 0.00 66 1016.0
20260905144551 87 277 0.0 2.0 0.00 0.00 0.00 70 1015.9
20260905143047 85 0 0.0 2.0 0.00 0.00 0.00 72 1016.0
20260905141602 83 277 0.0 1.0 0.00 0.00 0.00 75 1015.8
20260905140053 82 280 0.0 3.0 0.00 0.00 0.00 75 1016.0
20260905134602 81 278 1.0 4.0 0.00 0.00 0.00 77 1016.1
20260905133054 80 257 0.0 6.0 0.00 0.00 0.00 79 1016.4
20260905131553 79 288 1.0 3.0 0.00 0.00 0.00 82 1016.1
20260905130042 75 263 0.0 2.0 0.00 0.00 0.00 88 1016.2
20260905124547 74 0 0.0 0.0 0.00 0.00 0.00 90 1016.0
20260905123045 73 0 0.0 0.0 0.00 0.00 0.00 90 1015.9
20260905121542 73 0 0.0 0.0 0.00 0.00 0.00 90 1015.9
20260905120046 72 0 0.0 0.0 0.00 0.00 0.00 89 1015.7
20260905114620 72 0 0.0 0.0 0.00 0.00 0.00 89 1015.5
20260905113039 72 0 0.0 0.0 0.00 0.00 0.00 89 1015.2
20260905111549 72 0 0.0 0.0 0.00 0.00 0.00 89 1015.1
20260905110044 72 0 0.0 0.0 0.00 0.00 0.00 89 1015.0
20260905104541 72 0 0.0 0.0 0.00 0.00 0.00 88 1015.0
20260905103040 73 0 0.0 0.0 0.00 0.00 0.00 89 1014.9
20260905101539 73 0 0.0 0.0 0.00 0.00 0.00 88 1014.9
20260905100106 73 0 0.0 0.0 0.00 0.00 0.00 88 1014.9
20260905094551 73 0 0.0 0.0 0.00 0.00 0.00 88 1014.9
20260905093040 73 0 0.0 0.0 0.00 0.00 0.00 88 1015.0
20260905091551 73 0 0.0 0.0 0.00 0.00 0.00 88 1015.0
20260905090044 74 0 0.0 0.0 0.00 0.00 0.00 88 1014.9
20260905084545 74 0 0.0 0.0 0.00 0.00 0.00 87 1015.0
20260905083042 74 0 0.0 0.0 0.00 0.00 0.00 87 1015.0
20260905081542 75 244 0.0 1.0 0.00 0.00 0.00 86 1015.2
20260905080046 75 0 0.0 0.0 0.00 0.00 0.00 86 1015.2